Hilton Head Island, SC

11:58 AM EDT on March 27, 2017 (GMT -0400)
Hilton Head

Weather History for KHXD - January, 2013

Change the Weather History Date:

Friday, January 18, 2013

  Actual Average Record
Temperature  
Mean Temperature 50 °F -  
Max Temperature 55 °F 60 °F 78 °F (2017)
Min Temperature 44 °F 38 °F 37 °F (2016)
Degree Days  
Heating Degree Days 16    
Moisture  
Dew Point 42 °F    
Average Humidity 83    
Maximum Humidity 100    
Minimum Humidity 29    
Precipitation  
Precipitation 0.00 in - - ()
Sea Level Pressure  
Sea Level Pressure 30.35 in    
Wind  
Wind Speed 13 mph (North)    
Max Wind Speed 25 mph    
Max Gust Speed 37 mph    
Visibility 10 miles    
Events      
Averages and records for this station are not official NWS values.
T = Trace of Precipitation, MM = Missing Value Source: NWS Daily Summary

Daily Weather History Graph

Daily Weather History Graph

Search for Another Location

Airport or City:

Trip Planner

Search our weather history database for the weather conditions in past years. The results will help you decide how hot, cold, wet, or windy it might be!

Date:

Astronomy

Jan. 18, 2013 Rise Set
Actual Time 7:23 AM EST 5:43 PM EST
Civil Twilight 6:56 AM EST 6:10 PM EST
Nautical Twilight 6:27 AM EST 6:39 PM EST
Astronomical Twilight 5:57 AM EST 7:09 PM EST
Moon 11:29 AM EST (1/18) 12:05 AM EST (1/18)
Length of Visible Light 11h 13m
Length of Day
10h 20m
Waxing Crescent, 47% of the Moon is Illuminated
Jan 18
Waxing Crescent
Jan 18
First Quarter
Jan 26
Full
Feb 3
Last Quarter
Feb 10
New

Hourly Weather History & Observations

Time (EST) Temp. Windchill Dew Point Humidity Pressure Visibility Wind Dir Wind Speed Gust Speed Precip Events Conditions
12:15 AM 44.6 °F 39.7 °F 44.6 °F 100% 30.11 in 10.0 mi West 9.2 mph 17.3 mph 0.00 in   Overcast
12:35 AM 44.6 °F 38.8 °F 44.6 °F 100% 30.12 in 10.0 mi West 11.5 mph 20.7 mph 0.00 in   Overcast
12:55 AM 44.6 °F 39.7 °F 44.6 °F 100% 30.13 in 10.0 mi WNW 9.2 mph 16.1 mph 0.00 in   Overcast
1:15 AM 44.6 °F 39.2 °F 44.6 °F 100% 30.14 in 10.0 mi NNW 10.4 mph 16.1 mph 0.00 in   Overcast
1:35 AM 46.4 °F 41.1 °F 46.4 °F 100% 30.15 in 10.0 mi NNW 11.5 mph 26.5 mph 0.00 in   Mostly Cloudy
1:55 AM 46.4 °F 39.5 °F 46.4 °F 100% 30.16 in 10.0 mi North 17.3 mph 33.4 mph 0.00 in   Partly Cloudy
2:15 AM 46.4 °F 39.2 °F 46.4 °F 100% 30.17 in 10.0 mi North 18.4 mph 28.8 mph 0.00 in   Clear
2:35 AM 46.4 °F 39.2 °F 46.4 °F 100% 30.18 in 10.0 mi North 18.4 mph 26.5 mph 0.00 in   Clear
2:55 AM 48.2 °F - 48.2 °F 100% 30.19 in 10.0 mi North 25.3 mph 35.7 mph 0.00 in   Clear
3:15 AM 48.2 °F - 48.2 °F 100% 30.20 in 10.0 mi North 18.4 mph 26.5 mph 0.00 in   Partly Cloudy
3:35 AM 46.4 °F 39.2 °F 46.4 °F 100% 30.21 in 10.0 mi North 18.4 mph 26.5 mph 0.00 in   Partly Cloudy
3:55 AM 46.4 °F 39.5 °F 46.4 °F 100% 30.23 in 10.0 mi North 17.3 mph 27.6 mph 0.00 in   Clear
4:15 AM 46.4 °F 38.1 °F 46.4 °F 100% 30.25 in 10.0 mi North 24.2 mph 36.8 mph 0.00 in   Clear
4:35 AM 46.4 °F 38.1 °F 46.4 °F 100% 30.26 in 10.0 mi North 24.2 mph 31.1 mph 0.00 in   Clear
4:55 AM 46.4 °F 39.0 °F 46.4 °F 100% 30.27 in 10.0 mi North 19.6 mph 27.6 mph 0.00 in   Clear
5:15 AM 44.6 °F 35.7 °F 44.6 °F 100% 30.28 in 10.0 mi North 24.2 mph 31.1 mph 0.00 in   Clear
5:35 AM 44.6 °F 36.4 °F 44.6 °F 100% 30.29 in 10.0 mi North 20.7 mph 27.6 mph 0.00 in   Clear
6:55 AM 44.6 °F 38.8 °F 35.6 °F 71% 30.34 in 10.0 mi North 11.5 mph 16.1 mph N/A   Clear
7:50 AM 44.6 °F 37.2 °F 37.4 °F 76% 30.37 in 10.0 mi North 17.3 mph 24.2 mph N/A   Clear
8:50 AM 44.6 °F 38.8 °F 37.4 °F 76% 30.40 in 10.0 mi North 11.5 mph 20.7 mph N/A   Clear
9:50 AM 46.4 °F 40.4 °F 35.6 °F 66% 30.44 in 10.0 mi NNE 13.8 mph 28.8 mph N/A   Clear
10:50 AM 48.2 °F - 35.6 °F 62% 30.45 in 10.0 mi NNE 17.3 mph 23.0 mph N/A   Clear
11:50 AM 50.0 °F - 33.8 °F 54% 30.45 in 10.0 mi North 15.0 mph 20.7 mph N/A   Clear
12:50 PM 51.8 °F - 28.4 °F 41% 30.42 in 10.0 mi NNE 17.3 mph 23.0 mph N/A   Clear
1:50 PM 55.4 °F - 24.8 °F 31% 30.41 in 10.0 mi NNE 13.8 mph 23.0 mph N/A   Clear
2:50 PM 55.4 °F - 24.8 °F 31% 30.41 in 10.0 mi NNE 13.8 mph 25.3 mph N/A   Clear
3:50 PM 55.4 °F - 23.0 °F 29% 30.43 in 10.0 mi NNE 11.5 mph 17.3 mph N/A   Clear
4:50 PM 55.4 °F - 26.6 °F 33% 30.44 in 10.0 mi NNE 9.2 mph - N/A   Clear
5:50 PM 53.6 °F - 26.6 °F 35% 30.45 in 10.0 mi NNE 9.2 mph - N/A   Clear
6:50 PM 51.8 °F - 26.6 °F 38% 30.47 in 10.0 mi NNE 6.9 mph - N/A   Clear
7:50 PM 50.0 °F - 28.4 °F 43% 30.49 in 10.0 mi NNE 8.1 mph - N/A   Clear
8:15 PM 48.2 °F - 48.2 °F 100% 30.49 in 10.0 mi NNE 8.1 mph - 0.00 in   Clear
8:35 PM 48.2 °F - 48.2 °F 100% 30.49 in 10.0 mi North 6.9 mph - 0.00 in   Clear
8:55 PM 48.2 °F - 48.2 °F 100% 30.49 in 10.0 mi NNE 6.9 mph - 0.00 in   Clear
9:15 PM 48.2 °F - 48.2 °F 100% 30.49 in 10.0 mi NNE 6.9 mph - 0.00 in   Clear
9:35 PM 48.2 °F - 48.2 °F 100% 30.49 in 10.0 mi NNE 6.9 mph - 0.00 in   Clear
9:55 PM 48.2 °F - 48.2 °F 100% 30.49 in 10.0 mi NNE 6.9 mph - 0.00 in   Clear
10:15 PM 48.2 °F - 48.2 °F 100% 30.49 in 10.0 mi NNE 6.9 mph - 0.00 in   Clear
10:35 PM 48.2 °F - 48.2 °F 100% 30.49 in 10.0 mi North 6.9 mph - 0.00 in   Mostly Cloudy
10:55 PM 48.2 °F - 48.2 °F 100% 30.48 in 10.0 mi North 9.2 mph - 0.00 in   Overcast
11:15 PM 48.2 °F - 48.2 °F 100% 30.47 in 10.0 mi North 9.2 mph - 0.00 in   Overcast
11:35 PM 48.2 °F - 48.2 °F 100% 30.47 in 10.0 mi North 10.4 mph - 0.00 in   Overcast
11:55 PM 48.2 °F - 48.2 °F 100% 30.47 in 10.0 mi North 9.2 mph - 0.00 in   Overcast